Weather reports worldwide

Advertisment
Pratica Di Mare, Italy (16245): temperature & dewpoint: 14.10.2018 16:00:00 - 20.10.2018 16:00:00 (CEST)Pratica Di Mare, Italy (16245): wind speed: 14.10.2018 16:00:00 - 20.10.2018 16:00:00 (CEST)Pratica Di Mare, Italy (16245): wind direction: 14.10.2018 16:00:00 - 20.10.2018 16:00:00 (CEST)Pratica Di Mare, Italy (16245): reduced air pressure: 14.10.2018 16:00:00 - 20.10.2018 16:00:00 (CEST)Pratica Di Mare, Italy (16245): visibility: 14.10.2018 16:00:00 - 20.10.2018 16:00:00 (CEST)
Date & Time tt [°C] td [°C] ff [km/h] ff [kn] dd ppp [hPa] vv [km]
20.10.2018 16:00:00 - - - - - - -
20.10.2018 15:00:00 23,0 19,0 9 5 WSW - 10
20.10.2018 14:00:00 23,0 20,2 9 5 WSW 1020,8 25
20.10.2018 13:00:00 23,0 20,0 9 5 WSW - 10
20.10.2018 12:00:00 22,0 18,0 11 6 SSW - 10
20.10.2018 11:00:00 22,2 17,4 8 4 ESE 1020,3 25
20.10.2018 10:00:00 20,0 17,0 9 5 NNE - 10
20.10.2018 09:00:00 18,0 16,0 5 3 N - 10
20.10.2018 08:00:00 16,4 15,1 16 9 NNE 1018,9 15
20.10.2018 07:00:00 17,0 15,0 16 9 NNE - 10
20.10.2018 06:00:00 17,0 15,0 16 9 NNE - 10
20.10.2018 05:00:00 16,8 15,0 15 8 NNE 1018,0 15
20.10.2018 04:00:00 17,0 16,0 11 6 NNE - 10
20.10.2018 03:00:00 17,0 16,0 8 4 N - 10
20.10.2018 02:00:00 16,8 16,0 9 5 N 1018,2 15
20.10.2018 01:00:00 17,0 16,0 4 2 NNE - 10
20.10.2018 00:00:00 18,0 17,0 8 4 NNE - 10
19.10.2018 23:00:00 18,2 17,4 8 4 NNE 1018,0 15
19.10.2018 22:00:00 19,0 18,0 5 3 NE - 10
19.10.2018 21:00:00 20,0 18,0 8 4 N - 10
19.10.2018 20:00:00 20,0 18,8 8 4 NNE 1016,6 15
19.10.2018 19:00:00 21,0 19,0 8 4 NW - 10
19.10.2018 18:00:00 23,0 20,0 8 4 WNW - 10
19.10.2018 17:00:00 23,0 18,8 16 9 W 1015,0 20
19.10.2018 16:00:00 24,0 18,0 18 10 W - 10
19.10.2018 15:00:00 24,0 18,0 15 8 W - 10
19.10.2018 14:00:00 24,4 16,4 15 8 WSW 1015,7 20
19.10.2018 13:00:00 24,0 15,0 9 5 WSW - 10
19.10.2018 12:00:00 22,0 13,0 4 2 NNW - 10
19.10.2018 11:00:00 21,2 16,0 8 4 NNE 1015,7 20
19.10.2018 10:00:00 19,0 15,0 13 7 NNE - 10
19.10.2018 09:00:00 18,0 15,0 16 9 NNE - 10
19.10.2018 08:00:00 16,8 15,2 11 6 NNE 1014,1 15
19.10.2018 07:00:00 17,0 15,0 13 7 NNE - 10
19.10.2018 06:00:00 17,0 15,0 5 3 NNE - 10
19.10.2018 05:00:00 17,2 16,2 8 4 NE 1013,4 12
19.10.2018 04:00:00 18,0 17,0 5 3 NNE - 10
19.10.2018 03:00:00 18,0 17,0 5 3 NNE - 10
19.10.2018 02:00:00 19,0 17,8 9 5 NNE 1012,9 12
19.10.2018 01:00:00 19,0 18,0 9 5 NNE - 10
19.10.2018 00:00:00 19,0 18,0 9 5 NE - 10
18.10.2018 23:00:00 19,4 18,2 9 5 NNE 1012,7 15
18.10.2018 22:00:00 19,0 17,0 11 6 NNE - 10
18.10.2018 21:00:00 19,0 18,0 5 3 NNE - 10
18.10.2018 20:00:00 20,8 19,3 8 4 NNE 1011,8 15
18.10.2018 19:00:00 22,0 20,0 5 3 N - 10
18.10.2018 18:00:00 23,0 18,0 4 2 W - 10
18.10.2018 17:00:00 24,6 19,0 9 5 SW 1011,7 15
18.10.2018 16:00:00 25,0 18,0 11 6 S - 10
18.10.2018 15:00:00 25,0 19,0 9 5 SW - 10
18.10.2018 14:00:00 24,8 18,3 13 7 SSW 1012,4 18
18.10.2018 13:00:00 24,0 13,0 9 5 SSW - 10
18.10.2018 12:00:00 24,0 16,0 5 3 - - 10
18.10.2018 11:00:00 22,4 17,1 4 2 - 1012,7 15
18.10.2018 10:00:00 19,0 17,0 8 4 N - 10
18.10.2018 09:00:00 19,0 17,0 11 6 NNE - 10
18.10.2018 08:00:00 18,0 17,4 15 8 NNE 1012,3 15
18.10.2018 07:00:00 18,0 17,0 16 9 NNE - 10
18.10.2018 06:00:00 19,0 18,0 18 10 NNE - 10
18.10.2018 05:00:00 18,4 17,9 11 6 NNE 1012,6 15
18.10.2018 04:00:00 18,0 17,0 13 7 NNE - 10
18.10.2018 03:00:00 19,0 18,0 13 7 NE - 10
18.10.2018 02:00:00 20,2 19,0 13 7 NE 1014,3 15
18.10.2018 01:00:00 20,0 18,0 15 8 NE - 10
18.10.2018 00:00:00 20,0 19,0 13 7 NNE - 10
17.10.2018 23:00:00 20,0 19,0 9 5 NE 1014,5 15
17.10.2018 22:00:00 20,0 19,0 13 7 NE - 10
17.10.2018 21:00:00 20,0 19,0 11 6 NNE - 10
17.10.2018 20:00:00 20,0 19,4 9 5 NNE 1014,5 12
17.10.2018 19:00:00 21,0 21,0 8 4 N - 10
17.10.2018 18:00:00 22,0 20,0 4 2 W - 10
17.10.2018 17:00:00 23,6 20,7 9 5 SSW 1014,5 15
17.10.2018 16:00:00 23,0 20,0 15 8 S - 10
17.10.2018 15:00:00 24,0 20,0 21 11 S - 10
17.10.2018 14:00:00 23,8 21,3 16 9 S 1014,6 15
17.10.2018 13:00:00 22,0 19,0 13 7 ESE - 10
17.10.2018 12:00:00 22,0 20,0 21 11 SE - 10
17.10.2018 11:00:00 22,0 21,2 24 13 SSE 1016,6 15
17.10.2018 10:00:00 22,0 19,0 11 6 E - 10
17.10.2018 09:00:00 21,0 20,0 11 6 NE - 10
17.10.2018 08:00:00 19,0 18,0 15 8 NNE 1016,0 15
17.10.2018 07:00:00 19,0 18,0 5 3 NNE - 10
17.10.2018 06:00:00 19,0 17,0 8 4 N - 10
17.10.2018 05:00:00 19,0 16,0 9 5 NNE 1016,0 12
17.10.2018 04:00:00 20,0 17,0 11 6 E - 10
17.10.2018 03:00:00 19,0 17,0 8 4 ENE - 10
17.10.2018 02:00:00 18,8 17,7 8 4 NE 1017,0 12
17.10.2018 01:00:00 20,0 19,0 9 5 ENE - 10
17.10.2018 00:00:00 20,0 18,0 5 3 ENE - 10
16.10.2018 23:00:00 20,6 19,2 5 3 NE 1017,4 12
16.10.2018 22:00:00 21,0 19,0 9 5 ENE - 10
16.10.2018 21:00:00 22,0 20,0 9 5 E - 10
16.10.2018 20:00:00 22,2 20,5 11 6 ESE 1016,9 15
16.10.2018 19:00:00 22,0 20,0 8 4 ESE - 10
16.10.2018 18:00:00 23,0 20,0 9 5 SSE - 10
16.10.2018 17:00:00 23,0 19,8 22 12 SE 1016,5 20
16.10.2018 16:00:00 23,0 19,0 24 13 SSE - 10
16.10.2018 15:00:00 23,0 19,0 21 11 SSE - 10
16.10.2018 14:00:00 24,4 18,1 26 14 SE 1016,5 20
16.10.2018 13:00:00 24,0 18,0 26 14 SE - 10
16.10.2018 12:00:00 24,0 17,0 24 13 SE - 10
16.10.2018 11:00:00 22,4 15,3 21 11 ESE 1016,4 15
16.10.2018 10:00:00 22,0 15,0 15 8 ESE - 10
16.10.2018 09:00:00 20,0 16,0 5 3 ESE - 10
16.10.2018 08:00:00 20,0 18,1 5 3 E 1015,7 12
16.10.2018 07:00:00 20,0 19,0 11 6 NE - 10
16.10.2018 06:00:00 19,0 18,0 9 5 NNE - 10
16.10.2018 05:00:00 19,2 15,9 9 5 NE 1016,5 12
16.10.2018 04:00:00 19,0 16,0 9 5 NE - 10
16.10.2018 03:00:00 19,0 16,0 9 5 NNE - 10
16.10.2018 02:00:00 19,0 17,3 9 5 ENE 1016,4 12
16.10.2018 01:00:00 19,0 17,0 5 3 N - 10
16.10.2018 00:00:00 19,0 17,0 4 2 ENE - 10
15.10.2018 23:00:00 19,8 17,8 4 2 N 1016,3 12
15.10.2018 22:00:00 20,0 18,0 8 4 NE - 10
15.10.2018 21:00:00 21,0 19,0 8 4 N - 10
15.10.2018 20:00:00 22,0 19,9 4 2 NNE 1015,8 12
15.10.2018 19:00:00 23,0 19,0 4 2 N - 10
15.10.2018 18:00:00 23,0 17,0 4 2 NNW - 10
15.10.2018 17:00:00 24,0 17,3 9 5 WSW 1014,7 15
15.10.2018 16:00:00 24,0 17,0 11 6 W - 10
15.10.2018 15:00:00 24,0 16,0 11 6 WSW - 10
15.10.2018 14:00:00 23,8 14,8 11 6 SW 1015,4 15
15.10.2018 13:00:00 24,0 13,0 5 3 SSE - 10
15.10.2018 12:00:00 22,0 14,0 4 2 NNE - 10
15.10.2018 11:00:00 17,6 14,1 9 5 N 1015,6 12
15.10.2018 10:00:00 16,0 14,0 13 7 NNE - 10
15.10.2018 09:00:00 14,0 12,0 15 8 NNE - 10
15.10.2018 08:00:00 14,4 12,8 13 7 NNE 1015,6 15
15.10.2018 07:00:00 14,0 12,0 11 6 NNE - 10
15.10.2018 06:00:00 15,0 13,0 13 7 NNE - 10
15.10.2018 05:00:00 15,0 13,4 13 7 NNE 1015,6 12
15.10.2018 04:00:00 15,0 14,0 11 6 NNE - 10
15.10.2018 03:00:00 16,0 14,0 11 6 NE - 10
15.10.2018 02:00:00 16,0 14,4 9 5 NE 1016,7 12
15.10.2018 01:00:00 16,0 14,0 5 3 NE - 10
15.10.2018 00:00:00 17,0 15,0 8 4 NNE - 10
14.10.2018 23:00:00 17,0 15,4 9 5 NNE 1016,7 12
14.10.2018 22:00:00 17,0 15,0 8 4 ENE - 10
14.10.2018 21:00:00 17,0 15,0 5 3 NE - 10
14.10.2018 20:00:00 18,0 16,3 5 3 NNE 1016,5 12
14.10.2018 19:00:00 20,0 17,0 2 1 - - 10
14.10.2018 18:00:00 21,0 16,0 8 4 SW - 10
14.10.2018 17:00:00 21,6 15,0 9 5 SW 1016,3 20
14.10.2018 16:00:00 22,0 15,0 11 6 SSW - 10

tt = temperature
td = dewpoint
ff = wind speed
dd = wind direction
ppp = reduced air pressure
vv = visibility

Next stations